www.pogodaiklimat.ru

Погода и климат >> Архив погоды >> Дания >> Роскилле


ПОГОДА в Роскилле

  • Прогноз погоды в Роскилле
  • Монитор погоды в Роскилле

АРХИВ ПОГОДЫ в Роскилле

Время (UTC), дата Ветер
(напр.,м/с)
 
Видим.   Явления Облачность Т
(С)
Тd
(С)
f
(%)
Тe
(С)
Тes
(С)
Комфортность P
(гПа)
Po
(гПа)
Тmin
(С)
Tmax
(С)
R
(мм)
R24
(мм)
S
(см)
13 18.08 ЮВ 3 н/о 9/9 420 м
[]
+19.1 +15.9 82 +21 +22 комфорт 1004.3 999.3
14 18.08 Ю 2 н/о 10/10 540 м
[]
+18.1 +16.2 89 +19 +19 1003.7 998.7 0.9
15 18.08 Ю 4 н/о 10/10 210 м
[]
+16.0 +15.2 95 +15 +15 1003.9 998.9 5
16 18.08 ЮЗ 3 н/о 10/10 180 м
[]
+15.7 +14.8 94 +15 +15 1003.9 998.9 0.2
17 18.08 ЮЗ 3 4000 м 10/10 150 м
[]
+15.4 +14.7 96 +15 +15 1004.0 998.9 0.1
18 18.08 ЮЗ 4 н/о 9/9 150 м
[]
+15.3 +14.3 94 +14 +14 1004.2 999.1 +15.0 +19.5 0.9
19 18.08 З 3 н/о 3/3 360 м
[]
+14.3 +13.5 95 +13 +13 1004.6 999.6
20 18.08 ЮЗ 3 н/о 3/0
[]
+14.0 +13.4 96 +13 +13 1005.1 1000.0
21 18.08 ЮЗ 3 н/о 4/4 600 м
[]
+13.8 +13.2 96 +13 +13 1005.7 1000.6
22 18.08 З 4 н/о ясно +14.1 +13.3 95 +13 +13 1006.5 1001.4
23 18.08 З 3 н/о ясно +13.9 +13.3 96 +13 +13 1006.9 1001.9
00 19.08 З 3 н/о ясно +13.5 +13.0 97 +12 +12 1007.3 1002.3
01 19.08 З 3 н/о ясно +13.0 +12.5 97 +12 +12 1007.5 1002.5
02 19.08 ЮЗ 3 н/о ясно +12.8 +12.3 97 +11 +11 1007.9 1002.9
03 19.08 ЮЗ 3 5000 м 3/3 90 м
[]
+12.7 +12.3 97 +11 +11 1008.7 1003.6
04 19.08 ЮЗ 3 н/о ясно +13.1 +12.7 97 +12 +12 1008.9 1003.8
05 19.08 Ю 3 н/о ясно +14.2 +13.8 97 +13 +14 1009.6 1004.5
06 19.08 ЮЗ 4 н/о 8/8 300 м
[]
+15.5 +14.7 95 +15 +15 1010.0 1004.9 +12.2 +15.5 0.1
07 19.08 ЮЗ 6 н/о 6/6 210 м
[]
+16.8 +14.8 88 +16 +17 1010.2 1005.1
08 19.08 ЮЗ 7 н/о 4/4 480 м
[]
+17.5 +14.0 80 +17 +18 1010.3 1005.2
09 19.08 ЮЗ 8 н/о 6/6 540 м
[]
+20.0 +14.5 71 +22 +22 комфорт 1010.4 1005.4
10 19.08 ЮЗ 7 н/о 8/8 720 м
[]
+18.7 +13.2 70 +19 +20 1010.9 1005.8
11 19.08 ЮЗ 7 н/о 9/0
[]
+18.9 +11.4 62 +19 +21 1011.1 1006.0
12 19.08 ЮЗ 7 н/о 3/3 840 м
[]
+19.9 +12.8 64 +21 +23 комфорт 1011.9 1006.8
13 19.08 ЮЗ 7 н/о 4/4 870 м
[]
+20.4 +12.8 62 +22 +24 комфорт 1012.4 1007.3
14 19.08 ЮЗ 7 н/о 9/9 900 м
[]
+19.5 +12.2 63 +20 +21 1012.8 1007.7
15 19.08 ЮЗ 7 н/о 9/9 1000 м
[]
+19.0 +12.8 67 +19 +20 1013.4 1008.3
16 19.08 З 6 н/о 9/9 1020 м
[]
+16.1 +13.0 82 +15 +15 1014.1 1009.0 0.1
17 19.08 З 3 н/о 3/0
[]
+17.8 +13.5 76 +18 +18 1014.5 1009.4 0.1
18 19.08 ЮЗ 4
{12}
н/о 6/0
[]
+17.5 +12.9 74 +17 +17 1014.6 1009.5 +15.4 +21.2 0.2
19 19.08 Ю 4 н/о 1/0
[]
+15.9 +12.8 82 +15 +15 1015.1 1010.0
20 19.08 ЮЗ 4 н/о 1/0
[]
+15.2 +12.4 83 +14 +14 1015.6 1010.4
21 19.08 ЮЗ 4 н/о 9/0
[]
+15.3 +12.7 84 +14 +14 1015.8 1010.7
22 19.08 ЮЗ 3 н/о 1/0
[]
+14.3 +12.5 89 +13 +13 1016.1 1011.0
23 19.08 ЮЗ 2 н/о ясно +13.4 +11.9 91 +13 +13 1016.5 1011.4
00 20.08 ЮЗ 3 н/о ясно +13.0 +11.9 93 +12 +12 1016.7 1011.6
01 20.08 ЮЗ 3 н/о ясно +13.7 +12.4 92 +13 +13 1016.9 1011.8
02 20.08 Ю 3 н/о ясно +12.9 +12.1 95 +12 +12 1017.3 1012.2
03 20.08 Ю 2 н/о ясно +12.4 +11.8 96 +11 +11 1017.3 1012.2
04 20.08 Ю 2 н/о 3/0
[]
+13.1 +12.3 95 +12 +12 1017.5 1012.4
05 20.08 Ю 2 н/о ясно +13.3 +12.6 96 +12 +13 1017.8 1012.6
06 20.08 Ю 3 н/о ясно +14.6 +13.3 92 +14 +15 1018.1 1013.0 +12.2 +17.5
07 20.08 ЮЗ 5 н/о ясно +17.1 +13.6 80 +17 +19 1018.4 1013.3
08 20.08 Ю 5 н/о 5/5 630 м
[]
+18.1 +13.1 73 +18 +19 1018.7 1013.6
09 20.08 ЮЗ 7 н/о 4/4 870 м
[]
+18.8 +11.9 64 +19 +21 1018.8 1013.7
10 20.08 ЮЗ 4 н/о 8/8 660 м
[]
+18.8 +13.9 73 +20 +21 1019.0 1013.8
11 20.08 ЮЗ 7 н/о 5/5 870 м
[]
+19.8 +12.6 63 +21 +22 комфорт 1019.2 1014.1
12 20.08 ЮЗ 7 н/о 1/1 1000 м
[]
+20.1 +11.7 58 +21 +24 комфорт 1018.9 1013.7
13 20.08 ЮЗ 5 н/о 8/8 1080 м
[]
+20.0 +11.7 59 +22 +23 комфорт 1019.5 1014.4
14 20.08 ЮЗ 4 н/о 9/0 2000 м
[]
+16.7 +12.3 75 +16 +19 1020.3 1015.2 0.2
15 20.08 ЮЗ 4
{10}
н/о 9/9 1500 м
[]
+18.8 +12.6 67 +19 +20 1020.6 1015.4 0.2
16 20.08 ЮЗ 5 н/о 1/0
[]
+18.7 +11.4 63 +19 +20 1020.9 1015.7
17 20.08 ЮЗ 4 н/о 3/0
[]
+18.8 +11.9 64 +20 +20 1021.2 1016.0
18 20.08 ЮЗ 2
{10}
н/о ясно +16.6 +11.8 73 +17 +17 1021.3 1016.1 +14.6 +21.7
19 20.08 ЮЗ 3 н/о ясно +14.8 +11.5 81 +14 +14 1021.9 1016.7
20 20.08 ЮЗ 2 н/о 3/3 1260 м
[]
+13.9 +11.5 85 +13 +13 1022.4 1017.3
21 20.08 ЮЗ 2 н/о ясно +12.8 +11.0 89 +12 +12 1022.7 1017.5
22 20.08 ЮЗ 1 н/о ясно +12.4 +11.1 92 +13 +13 1022.8 1017.7
23 20.08 Ю 2 н/о ясно +11.3 +10.1 92 +10 +10 1023.2 1018.0
00 21.08 ЮЗ 2 н/о ясно +10.5 +9.7 95 +9 +9 1023.2 1018.0
01 21.08 ЮЗ 1 н/о ясно +10.8 +9.8 94 +10 +10 1023.3 1018.2
02 21.08 ЮЗ 2 н/о 1/0
[]
+9.9 +9.4 97 +9 +9 1023.6 1018.4
03 21.08 ЮЗ 2 н/о 4/0
[]
+10.5 +9.8 95 +9 +9 1023.8 1018.7
04 21.08 ЮЗ 2 н/о ясно +10.2 +9.8 97 +9 +9 1024.1 1018.9
05 21.08 ЮЗ 2 н/о ясно +10.8 +10.4 97 +10 +10 1024.4 1019.2
06 21.08 ЮЗ 3 н/о ясно +14.1 +12.4 89 +13 +14 1024.8 1019.6 +9.3 +16.7
07 21.08 ЮЗ 4 н/о ясно +16.0 +12.6 80 +15 +18 1025.1 1020.0
08 21.08 З 5 н/о 6/6 570 м
[]
+15.9 +12.9 82 +15 +16 1025.2 1020.0
09 21.08 З 5 н/о 1/1 720 м
[]
+17.5 +11.0 66 +17 +21 1025.6 1020.4 0.2
10 21.08 З 3 н/о 8/8 720 м
[]
+17.6 +11.6 68 +18 +19 1025.7 1020.6
11 21.08 СЗ 5 н/о 5/5 1230 м
[]
+18.5 +9.0 54 +19 +21 1025.9 1020.7
12 21.08 СЗ 6 н/о 5/5 1350 м
[]
+19.7 +8.6 49 +20 +23 1026.0 1020.9
13 21.08 З 6 н/о 9/9 1320 м
[]
+19.0 +7.8 48 +19 +20 1026.3 1021.1
14 21.08 З 6 н/о 4/4 1380 м
[]
+18.3 +8.7 53 +18 +20 1026.4 1021.3
15 21.08 З 5 н/о 8/8 1410 м
[]
+19.2 +8.0 48 +20 +20 1026.7 1021.6
16 21.08 З 5 н/о 8/8 1350 м
[]
+19.4 +8.8 50 +20 +20 1026.8 1021.7
17 21.08 З 5 н/о 1/1 1300 м
[]
+18.2 +8.7 54 +18 +18 1026.9 1021.8
18 21.08 СЗ 2 н/о 3/3 1350 м
[]
+16.7 +9.2 61 +17 +17 1027.1 1021.9 +14.3 +20.4
19 21.08 ЮЗ 2 н/о 3/3 1350 м
[]
+14.1 +9.1 72 +14 +14 1027.4 1022.2
20 21.08 Ю 1 н/о 1/1 1380 м
[]
+13.1 +8.9 76 +13 +13 1027.5 1022.4
21 21.08 Ю 2 н/о 6/6 1260 м
[]
+13.3 +9.5 78 +13 +13 1027.8 1022.6
22 21.08 Ю 2 н/о 3/3 1260 м
[]
+12.9 +10.6 86 +12 +12 1027.8 1022.6
23 21.08 Ю 2 н/о ясно +11.6 +10.1 91 +11 +11 1027.9 1022.7
00 22.08 ЮЗ 2 н/о ясно +11.4 +10.6 95 +10 +10 1027.8 1022.7
01 22.08 ЮЗ 1 н/о ясно +11.7 +11.1 96 +12 +12 1027.8 1022.6
02 22.08 Ю 2 н/о ясно +10.8 +10.5 98 +10 +10 1027.7 1022.5
03 22.08 Ю 1 н/о ясно +11.1 +10.9 99 +11 +11 1027.7 1022.6
04 22.08 Ю 2 н/о ясно +11.3 +10.9 97 +10 +10 1027.7 1022.5
05 22.08 Ю 2 н/о ясно +12.1 +11.7 97 +11 +12 1027.5 1022.3
06 22.08 Ю 2 н/о ясно +14.4 +12.9 91 +14 +15 1027.6 1022.5 +9.9 +16.8
07 22.08 Ю 4 н/о ясно +17.2 +13.2 77 +17 +19 1027.6 1022.4
08 22.08 Ю 5 н/о ясно +18.7 +12.0 65 +19 +22 1027.4 1022.2
09 22.08 Ю 6 н/о ясно +20.0 +10.7 55 +21 +24 комфорт 1027.2 1022.0
10 22.08 Ю 7 н/о 8/8 1260 м
[]
+21.2 +10.6 51 +23 +23 комфорт 1026.9 1021.7
11 22.08 Ю 6 н/о 9/9 1380 м
[]
+20.8 +9.9 50 +22 +23 комфорт 1026.5 1021.3
12 22.08 ЮЗ 6
{11}
н/о 3/3 1500 м
[]
+22.9 +9.0 41 +24 +28 комфорт 1025.9 1020.8
13 22.08 ЮЗ 7 н/о ясно +22.4 +6.7 36 +23 +26 комфорт 1025.6 1020.4
14 22.08 Ю 7 н/о ясно +22.8 +8.1 39 +24 +26 комфорт 1024.8 1019.6
15 22.08 Ю 8 н/о ясно +22.8 +8.4 40 +24 +25 комфорт 1024.4 1019.3
16 22.08 ЮЗ 6 н/о 3/0
[]
+22.0 +9.0 43 +23 +24 комфорт 1024.3 1019.1
17 22.08 ЮЗ 5 н/о 4/0
[]
+21.2 +10.0 49 +23 +23 комфорт 1024.1 1019.0
18 22.08 Ю 3
{12}
н/о 8/0
[]
+19.2 +10.2 56 +20 +20 1024.1 1019.0 +14.3 +23.4
19 22.08 Ю 3 н/о 4/0
[]
+15.0 +10.7 75 +14 +14 1024.5 1019.4
20 22.08 Ю 2 н/о 8/0
[]
+15.8 +11.8 77 +16 +16 1024.8 1019.6
21 22.08 Ю 2 н/о 10/0
[]
+15.6 +11.9 79 +16 +16 1024.6 1019.5
22 22.08 З 1 н/о 8/0
[]
+15.0 +11.8 81 +16 +16 1024.5 1019.4
23 22.08 Ю 2 н/о ясно +13.9 +10.9 82 +13 +13 1024.6 1019.5
00 23.08 Ю 3 н/о 1/0
[]
+15.1 +11.5 79 +14 +14 1024.6 1019.4
01 23.08 Ю 3 н/о 3/0
[]
+14.8 +11.2 79 +14 +14 1024.4 1019.3
02 23.08 ЮЗ 3 н/о 10/0
[]
+14.4 +11.9 85 +14 +14 1024.5 1019.3
03 23.08 ЮЗ 2 н/о 10/0
[]
+14.7 +12.3 86 +15 +15 1024.4 1019.2
04 23.08 ЮЗ 2 н/о 10/0
[]
+14.7 +12.5 87 +14 +14 1024.3 1019.2
05 23.08 ЮЗ 2 н/о 10/0
[]
+15.3 +13.1 87 +15 +15 1024.3 1019.2
06 23.08 ЮЗ 4 н/о 3/0
[]
+17.2 +13.6 79 +17 +18 1024.6 1019.5 +13.4 +19.5
07 23.08 ЮЗ 5 н/о ясно +19.1 +10.9 59 +20 +22 1024.9 1019.8
08 23.08 ЮЗ 6 н/о ясно +20.0 +11.5 58 +21 +24 комфорт 1025.3 1020.1
09 23.08 ЮЗ 5 н/о ясно +20.6 +11.1 54 +22 +27 комфорт 1025.3 1020.1
10 23.08 ЮЗ 6 н/о ясно +22.6 +12.5 53 +25 +30 комфорт 1025.3 1020.1
11 23.08 ЮЗ 6 н/о ясно +23.7 +13.1 51 +26 +30 жарко 1025.2 1020.0
12 23.08 ЮЗ 6 н/о ясно +23.8 +12.4 49 +26 +30 жарко 1025.0 1019.9
13 23.08 З 6 н/о ясно +24.3 +12.8 49 +26 +30 жарко 1024.9 1019.7
14 23.08 З 5 н/о 1/1 1350 м
[]
+24.2 +13.3 51 +26 +30 жарко 1024.9 1019.7
15 23.08 З 5 н/о 5/5 1200 м
[]
+23.0 +13.9 57 +26 +28 жарко 1025.1 1019.9
16 23.08 З 5 н/о 10/10 1080 м
[]
+22.5 +14.3 60 +26 +26 жарко 1025.3 1020.2
17 23.08 З 4 н/о 4/4 1140 м
[]
+22.2 +14.9 63 +26 +26 душно 1025.0 1019.9
18 23.08 З 3 н/о ясно +20.9 +15.2 70 +25 +25 комфорт 1025.2 1020.0 +17.2 +25.4
19 23.08 З 2 н/о ясно +19.3 +15.0 76 +21 +21 комфорт 1025.6 1020.5
20 23.08 З 1 н/о ясно +17.2 +14.6 85 +18 +18 1025.7 1020.5
21 23.08 З 1 н/о ясно +15.5 +13.9 90 +16 +16 1025.8 1020.7
22 23.08 0 н/о ясно +15.1 +14.6 97 1025.9 1020.7
23 23.08 З 1 н/о ясно +14.1 +13.6 97 +15 +15 1026.1 1021.0
00 24.08 З 1 н/о ясно +14.2 +13.9 98 +14 +14 1026.3 1021.2
01 24.08 СЗ 1 800 м ясно +13.7 +13.4 98 +15 +15 1026.4 1021.3
02 24.08 СЗ 1 300 м ясно +13.1 +12.8 98 +13 +13 1026.6 1021.4
03 24.08 З 1 200 м ясно +12.0 +11.9 99 +12 +12 1026.6 1021.4
04 24.08 З 1 200 м 5/5 90 м
[]
+11.7 +11.5 99 +12 +12 1026.7 1021.5
05 24.08 СЗ 1 200 м ясно +13.5 +13.5 100 +14 +15 1026.7 1021.5
06 24.08 0 н/о ясно +15.7 +15.1 96 1027.0 1021.8 +10.7 +20.8
07 24.08 СВ 2 н/о 5/5 180 м
[]
+17.8 +15.8 88 +19 +20 1027.1 1021.9
08 24.08 СВ 1 н/о 1/1 330 м
[]
+19.0 +15.0 78 +21 +28 комфорт 1027.4 1022.2
09 24.08 ЮВ 1 н/о ясно +21.7 +15.5 68 +25 +36 комфорт 1027.4 1022.3
10 24.08 В 1 н/о ясно +21.3 +14.6 66 +24 +36 комфорт 1027.3 1022.1
11 24.08 Ю 2 н/о 3/3 900 м
[]
+22.0 +14.7 63 +25 +34 комфорт 1027.1 1021.9
12 24.08 ЮВ 2 н/о ясно +23.0 +15.1 61 +27 +38 душно 1026.9 1021.7
13 24.08 В 3 н/о ясно +23.1 +14.9 60 +27 +35 душно 1026.7 1021.5
14 24.08 В 3 н/о ясно +23.6 +11.8 47 +25 +31 комфорт 1026.3 1021.1
15 24.08 В 3 н/о ясно +23.8 +10.2 42 +25 +29 комфорт 1026.0 1020.9
16 24.08 ЮВ 3 н/о ясно +23.3 +11.9 49 +26 +28 жарко 1025.6 1020.4
17 24.08 ЮВ 3 н/о ясно +21.7 +12.6 56 +24 +25 комфорт 1025.5 1020.3
18 24.08 ЮВ 2 н/о ясно +19.1 +13.9 72 +21 +21 комфорт 1025.2 1020.0 +15.8 +24.6
19 24.08 В 2 н/о ясно +17.7 +14.5 82 +18 +18 1025.5 1020.3
20 24.08 В 2 н/о ясно +17.4 +14.3 82 +18 +18 1025.5 1020.3
21 24.08 В 2 н/о ясно +17.0 +14.2 84 +18 +18 1025.5 1020.3
22 24.08 В 1 н/о ясно +14.8 +13.0 89 +15 +15 1025.6 1020.4
23 24.08 В 3 н/о ясно +15.3 +14.4 94 +15 +15 1025.7 1020.5
00 25.08 В 3 7000 м ясно +16.3 +15.2 93 +16 +16 1025.3 1020.1
01 25.08 В 3 6000 м ясно +16.3 +15.5 95 +16 +16 1025.1 1019.9
02 25.08 В 3 2900 м ясно +16.1 +15.7 97 +16 +16 1024.8 1019.7
03 25.08 В 3 500 м ясно +16.1 +15.8 98 +16 +16 1024.6 1019.4
04 25.08 В 3 1700 м 3/3 120 м
[]
+15.5 +15.3 99 +15 +15 1024.3 1019.1 0.1
05 25.08 В 2 4500 м ясно +16.0 +15.6 97 +16 +16 1024.4 1019.3
06 25.08 В 3 6000 м ясно +17.4 +16.4 94 +17 +19 1024.4 1019.3 +14.5 +19.1 0.0
07 25.08 В 4 н/о ясно +19.2 +17.1 88 +21 +23 комфорт 1024.8 1019.6
08 25.08 ЮВ 5 н/о ясно +20.8 +17.7 82 +25 +28 комфорт 1025.1 1019.9
09 25.08 ЮВ 4 н/о ясно +21.7 +17.2 76 +26 +31 душно 1025.1 1020.0
10 25.08 ЮВ 5 н/о ясно +22.5 +17.1 72 +27 +33 душно 1024.9 1019.9
11 25.08 ЮВ 5 н/о ясно +23.8 +14.5 56 +26 +33 жарко 1024.5 1019.5
12 25.08 ЮВ 5 н/о ясно +24.9 +13.7 50 +27 +33 жарко 1024.2 1019.1
13 25.08 ЮВ 6 н/о ясно +24.8 +12.8 47 +27 +31 жарко 1023.9 1018.8

 

Местоположение метеостанции Роскилле (Дания): широта 55.58 долгота 12.13 высота над уровнем моря 43 м.

В архиве по умолчанию представлена погода в Роскилле за последнюю неделю. Архивные данные за месяц целиком и за предыдущие месяцы, начиная с января 2011 года, Вы можете получить, выбрав интересующий диапазон дат из раскрывающегося списка и нажав кнопку "Ввод!".


*Определитесь, кто Вы:
робот инопланетянин человек

Внимание! Время в таблицах - всемирное. Для получения местного времени необходимо прибавить поправку, которая равна 1 ч.

Смотрите также архив погоды в соседних городах и на ближайших метеорологических станциях:

Погода в Кёге (Дания) (20 км)
Погода в Копенгагене Jaegers (Дания) (31 км)
Погода в Копенгагене (Дания) (33 км)
Погода в Хольбеке (Дания) (37 км)
Погода на Дрогдене (Дания) (38 км)
Погода в Сяелсмарке (Дания) (38 км)
Погода в Бранделеве (Дания) (45 км)
Погода в Фальстербу АМС (Швеция) (49 км)
Погода в Фальстербу (Швеция) (49 км)
Погода в Флаккебэрге (Дания) (55 км)

Пояснения к столбцам:

Ветер - указаны скорость ветра в м/с - средняя за 10 мин, порывы в срок и между сроками (в фигурных скобках) и направление, откуда дует ветер: С - северный, СВ - северо-восточный, В - восточный, ЮВ - юго-восточный, Ю - южный, ЮЗ - юго-западный, З - западный, СЗ - северо-западный.
Видимость - горизонтальная дальность видимости в метрах или километрах. При видимости от 1 до 10 км при отсутствии осадков обычно наблюдается дымка, при ухудшении видимости до 1 км и менее - туман. В сухую погоду видимость может ухудшаться дымом, пылью или мглою.
Явления - указаны атмосферные явления, наблюдавшиеся в срок или в последний час перед сроком; фигурными скобками обозначены явления, наблюдавшиеся между сроками (за 1-3 часа до срока); квадратными скобками обозначены град или гололедные отложения с указанием их диаметра в мм.
Облачность - указаны через наклонную черту общая и нижняя облачность в баллах и высота нижней границы облаков в метрах; квадратными скобками обозначены формы облаков: Ci - перистые, Cs - перисто-слоистые, Cc - перисто-кучевые, Ac - высококучевые, As - высокослоистые, Sc - слоисто-кучевые, Ns - слоисто-дождевые, Cu - кучевые, Cb - кучево-дождевые. Подробнее классификацию облаков см. в Атласе облаков (PDF).
T - Температура воздуха - температура, измеренная на высоте 2 м над землей.
Td - Температура точки росы - температура, при понижении до которой содержащийся в воздухе водяной пар достигнет насыщения.
f - Относительная влажность воздуха - влажноcть воздуха, измеренная на высоте 2 м над землей.
Te - Эффективная температура - температура, которую ощущает одетый по сезону человек в тени. Характеристика душности погоды. При расчете учитывается влияние влажности воздуха и скорости ветра на теплоощущения человека.
Tes - Эффективная температура на солнце - температура, которую ощущает человек, с поправкой на солнечный нагрев. Характеристика знойности погоды. Зависит от высоты солнца над горизонтом, облачности и скорости ветра. Ночью, в пасмурную погоду, а также при ветре 12 м/с и более поправка равна нулю.
P - Атмосферное давление - приведенное к уровню моря атмосферное давление.
Po - Атмосферное давление - измеренное на уровне метеостанции атмосферное давление.
Tmin - Минимальная температура - минимум температуры воздуха на высоте 2 м над землей.
Tmax - Максимальная температура - максимум температуры воздуха на высоте 2 м над землей.
R - Количество осадков - Количество выпавших осадков за период времени, мм. При наведении курсора мыши на число - период времени, за который выпало указанное количество осадков.
R24 - Количество осадков - Количество выпавших осадков за 24 часа, мм.
S - Снежный покров - Высота снежного покрова, см. При наведении курсора мыши на число - состояние снежного покрова и степень покрытия местности в баллах.